Regional Weather Roundup
Issued by NWS State College, PA

Home | Current Version | Previous Version | Graphics & Text | Print | Product List | Glossary On
Versions: 1 2 3 4 5 6 7 8 9 10 11 12 13 14 15 16 17 18 19 20 21 22 23 24 25 26 27 28 29 30 31 32 33 34 35 36 37 38 39 40 41 42 43 44 45 46 47 48 49 50
000
ASUS41 KCTP 312010
RWRCTP

REGIONAL WEATHER ROUNDUP
NATIONAL WEATHER SERVICE STATE COLLEGE PA
400 PM EDT THU JUL 31 2014

Note: "fair" indicates few or no clouds below 12,000 feet with no
significant weather and/or obstructions to visibility.

* = STATION THAT DOES NOT REPORT PRECIPITATION /E.G. RAIN...SNOW...ETC/
    THUNDER OR FOG.

PAZ002>004-007>009-013>016-020>023-029>032-312100-
WESTERN PENNSYLVANIA

CITY           SKY/WX    TMP DP  RH WIND       PRES   REMARKS
ERIE           SUNNY     73  54  51 W8G17     30.07S
MEADVILLE      MOSUNNY   74  51  44 W12       30.09S
FRANKLIN*      MOSUNNY   75  55  50 W12       30.11S
NEW CASTLE     FAIR      79  59  50 SW8       30.09S
BEAVER COUNTY  PTSUNNY   75  59  57 SW6       30.10S
BUTLER*        SUNNY     75  61  60 SW9       30.11S
PITTSBURGH INT MOSUNNY   77  59  53 SW10      30.09F
PITTSBURGH     MOSUNNY   78  58  49 SW12G18   30.09F
INDIANA*       PTSUNNY   75  61  60 W9G16     30.14S
LATROBE        PTSUNNY   77  63  61 SW10      30.12S
WASHINGTON CO* PTSUNNY   73  63  68 N3        30.11F
$$

PAZ004>006-010>012-017>019-024>028-033>037-041-042-045-046-049>053-312100-
CENTRAL PENNSYLVANIA

CITY           SKY/WX    TMP DP  RH WIND       PRES   REMARKS
BRADFORD       MOSUNNY   71  47  42 VRB7      30.10S
DUBOIS         MOSUNNY   74  58  57 W13       30.10F
CLEARFIELD     MOSUNNY   75  57  53 SW13G18   30.11F
JOHNSTOWN      SUNNY     72  55  55 SW14      30.14F
ALTOONA        PTSUNNY   76  58  53 W7        30.11F
STATE COLLEGE  PTSUNNY   75  63  64 SW9       30.10S
WILLIAMSPORT   MOSUNNY   74  62  66 SE6       30.07F
SELINSGROVE    CLOUDY    76  62  62 NW7       30.08F
FT INDIANTOWN  MOSUNNY   80  62  54 W7        30.09S
CAPITAL CITY   MOSUNNY   80  59  48 S7        30.07F
HARRISBURG     MOSUNNY   83  62  49 SW6       30.07S
YORK           SUNNY     80  59  48 SW5       30.09S
$$

PAZ038>040-043-044-047-048-054-055-060>062-067>071-312100-
EASTERN PENNSYLVANIA

CITY           SKY/WX    TMP DP  RH WIND       PRES   REMARKS
SCRANTON       PTSUNNY   79  56  45 W14       30.09S
MOUNT POCONO   PTSUNNY   74  55  51 W12       30.13S
ALLENTOWN      MOSUNNY   81  57  43 SW13      30.08F
QUAKERTOWN*    CLEAR     81  59  47 W6        30.10S
READING        PTSUNNY   83  59  44 SW7G17    30.07S
LANCASTER      SUNNY     80  57  45 SW9       30.08F
COATESVILLE    MOCLDY    79  61  53 S3        30.11F
POTTSTOWN      MOSUNNY   81  60  48 MISG      30.10F
BLUE BELL      MOSUNNY   81  61  50 CALM      30.08S
DOYLESTOWN     MOSUNNY   79  58  48 VRB6      30.08S
WILLOW GROVE   NOT AVBL
NORTH PHILA    MOSUNNY   83  58  42 SW9       30.09F
PHILADELPHIA   MOSUNNY   86  60  41 W14       30.09R
$$


USA.gov is the U.S. government's official web portal to all federal, state and local government web resources and services.